[[{"header":{"parameterUnit":"m.s-1","parameterCategory":1,"la1":30.2991,"la2":30.254,"lo1":-89.0895,"lo2":-89.0444,"dy":0.0017,"dx":0.0017,"nx":28,"ny":28,"refTime":"2025-02-07T03:00:00:Z","depth":0,"parameterNumber":2,"parameterNumberName":"U-component_of_WINDS"},"data":[0,0,0,0,0,0,0,0,0,0,0,0,0,0,0,0,0,0,0,0,0,0,0,0,0,0,0,0,0,0,0,0,0,0,0,0,0,0,0,0,0,0,0,0,0,0,0,0,0,0,0,0,0,0,0,0,0,0,-0.9749,-0.9749,0,-0.9754,-0.9754,-0.9754,-0.9727,-0.9726,-0.9725,-0.9724,-0.9729,-0.9729,-0.973,0,0,0,0,0,0,0,0,0,0,0,0,0,-0.9716,-0.9716,-0.9749,-0.9749,-0.9749,-0.9754,-0.9754,-0.9754,-0.9727,-0.9726,-0.9725,-0.9724,-0.9728,-0.9729,-0.973,0,0,0,0,0,0,0,0,0,0,0,0,0,-0.9726,-0.9717,-0.9749,-0.9736,-0.9735,-0.9754,-0.9754,-0.9754,-0.9727,-0.9726,-0.9725,-0.9724,-0.9728,-0.9729,-0.973,-0.9761,0,0,-0.9734,-0.9735,0,0,0,0,0,0,0,0,-0.9726,-0.9728,-0.9738,-0.9737,-0.9736,-0.9738,-0.9743,-0.9756,-0.9727,-0.973,-0.9724,-0.9723,-0.9733,-0.9733,-0.9737,-0.9761,-0.9761,-0.9734,-0.9735,-0.9736,-0.9736,0,0,0,0,0,0,0,-0.9725,-0.9727,-0.9751,-0.9738,-0.9737,-0.973,-0.973,-0.9746,-0.9738,-0.973,-0.9728,-0.9729,-0.9732,-0.9736,-0.9737,-0.9762,-0.9734,-0.9735,-0.9736,-0.9737,-0.9809,-0.9811,0,0,0,0,0,0,-0.9726,-0.9727,-0.9751,-0.9751,-0.9728,-0.9731,-0.9732,-0.9739,-0.9738,-0.9736,-0.973,-0.9728,-0.9734,-0.9735,-0.9737,-0.9771,-0.9736,-0.9737,-0.9737,-0.9808,-0.981,-0.9811,0,0,0,0,0,0,-0.9726,-0.9729,-0.9751,-0.9738,-0.9741,-0.9733,-0.9741,-0.974,-0.9743,-0.9738,-0.9736,-0.9735,-0.9733,-0.9735,-0.9755,-0.9771,-0.9737,-0.9738,-0.9807,-0.9809,-0.981,-0.9841,0,0,0,0,0,0,-0.9725,-0.9728,-0.974,-0.9739,-0.9741,-0.9769,-0.9743,-0.974,-0.9746,-0.9743,-0.9742,-0.9741,-0.9733,-0.9753,-0.9756,-0.9772,-0.9739,-0.9805,-0.9808,-0.981,-0.9838,-0.9844,-0.9848,0,0,0,0,0,-0.9724,-0.9749,-0.9741,-0.9744,-0.9756,-0.977,-0.9771,-0.9761,-0.9747,-0.9758,-0.9755,-0.9741,-0.9769,-0.9755,-0.9759,-0.9775,-0.9804,-0.9807,-0.981,-0.9836,-0.9843,-0.9848,0,0,0,0,0,0,-0.9753,-0.9749,-0.974,-0.9766,-0.9768,-0.9765,-0.978,-0.9769,-0.9775,-0.9772,-0.9759,-0.9759,-0.9781,-0.978,-0.9765,-0.9804,-0.9784,-0.9788,-0.9803,-0.9809,-0.9814,-0.9813,-0.974,0,0,0,0,0,-0.9763,-0.9774,-0.977,-0.9793,-0.9795,-0.9787,-0.9793,-0.9785,-0.9787,-0.9788,-0.9786,-0.9788,-0.9797,-0.9803,-0.9812,-0.9839,-0.9837,-0.9852,-0.9856,-0.986,-0.9863,-0.9875,-0.9881,-0.982,-0.982,-0.982,0,0,-0.9782,-0.9781,-0.979,-0.9799,-0.98,-0.9812,-0.9788,-0.9802,-0.9811,-0.979,-0.9808,-0.9807,-0.9808,-0.9831,-0.9841,-0.9831,-0.988,-0.9864,-0.9867,-0.9867,-0.9879,-0.9884,-0.989,-0.9822,-0.9821,-0.9821,0,0,-0.9824,-0.9825,-0.9844,-0.9845,-0.9847,-0.9841,-0.9846,-0.9845,-0.9842,-0.9861,-0.9845,-0.9855,-0.9871,-0.9872,-0.9875,-0.9916,-0.9903,-0.992,-0.9944,-0.9956,-0.9961,-0.9965,-0.9978,-0.9983,-0.9923,-0.9923,-0.9923,0,-0.9848,-0.9865,-0.9855,-0.9869,-0.9873,-0.9855,-0.9873,-0.9875,-0.988,-0.9882,-0.9871,-0.989,-0.9891,-0.9913,-0.9923,-0.9926,-0.993,-0.9919,-0.9961,-0.9965,-0.9969,-0.9981,-0.9986,-0.9925,-0.9924,-0.9924,-0.9924,0,-0.9894,-0.9906,-0.9921,-0.9925,-0.9931,-0.9947,-0.9938,-0.9946,-0.9937,-0.9933,-0.995,-0.995,-0.9957,-0.9962,-0.9954,-0.9983,-0.9976,-0.9964,-0.9943,-0.9977,-0.9988,-0.9993,-0.9927,-0.9926,-0.9926,-0.9925,0,0,-0.9954,-0.9951,-0.9957,-0.9958,-0.9958,-0.9967,-0.9982,-0.9989,-0.9994,-0.9998,-1.001,-1.0024,-1.0011,-1.0015,-1.0007,-1.0018,-1.0048,-1.0004,-1.0003,-1.001,-1.0078,-1.0086,-1.0092,-1.004,-1.0041,-1.0042,-1.0077,0,-0.9993,-1.0018,-1.0009,-1.0034,-1.0045,-1.0027,-1.004,-1.0042,-1.0038,-1.0046,-1.0041,-1.0051,-1.0035,-1.0036,-1.0047,-1.0042,-1.0061,-1.004,-1.005,-1.005,-1.0048,-1.0098,-1.0107,-1.014,-1.0082,-1.0082,-1.0083,0,-1.0042,-1.0047,-1.0073,-1.007,-1.0074,-1.0086,-1.0091,-1.0099,-1.01,-1.0096,-1.0099,-1.0089,-1.0102,-1.0083,-1.0101,-1.0087,-1.009,-1.0089,-1.009,-1.0089,-1.0067,-1.0096,-1.015,-1.0155,-1.009,-1.0089,-1.0089,0,-1.008,-1.0094,-1.0111,-1.0113,-1.011,-1.0118,-1.0118,-1.0118,-1.0122,-1.0126,-1.0128,-1.0134,-1.0137,-1.0142,-1.0133,-1.012,-1.0151,-1.0132,-1.0147,-1.0148,-1.0154,-1.0153,-1.0207,-1.0159,-1.0159,-1.0159,-1.0159,0,-1.0124,-1.014,-1.0128,-1.0138,-1.0156,-1.0145,-1.0162,-1.016,-1.0159,-1.0168,-1.0155,-1.0163,-1.0152,-1.0159,-1.0152,-1.0167,-1.0169,-1.0166,-1.0163,-1.0166,-1.0166,-1.0167,-1.0164,-1.016,-1.016,-1.016,-1.0159,0,-1.0169,-1.0162,-1.0179,-1.0175,-1.0174,-1.0187,-1.0184,-1.0193,-1.0188,-1.02,-1.0202,-1.0194,-1.0202,-1.0194,-1.0201,-1.0197,-1.0216,-1.0211,-1.0216,-1.0214,-1.0229,-1.0227,-1.0284,-1.029,-1.024,-1.024,-1.0241,0,-1.0197,-1.0209,-1.0206,-1.0211,-1.0211,-1.0219,-1.0223,-1.0213,-1.0217,-1.0218,-1.0227,-1.0234,-1.0238,-1.0252,-1.0246,-1.0252,-1.0246,-1.0266,-1.0247,-1.0248,-1.0244,-1.0243,-1.0243,-1.0269,-1.027,-1.027,-1.027,0,-1.0246,-1.0241,-1.0247,-1.0252,-1.0257,-1.026,-1.0262,-1.0267,-1.0256,-1.0262,-1.0269,-1.0273,-1.028,-1.0286,-1.029,-1.0289,-1.0277,-1.0277,-1.028,-1.0282,-1.0283,-1.0281,-1.0224,-1.0275,-1.0275,-1.0274,-1.0274,-1.0274,-1.0282,-1.0291,-1.029,-1.0297,-1.0297,-1.0299,-1.0307,-1.0303,-1.0309,-1.0313,-1.0307,-1.0316,-1.0316,-1.0319,-1.032,-1.0326,-1.0318,-1.0323,-1.0324,-1.0326,-1.0327,-1.0284,-1.0327,-1.0327,-1.0327,-1.0327,-1.0327,0,-1.0328,-1.0326,-1.0333,-1.0336,-1.0341,-1.033,-1.0331,-1.0336,-1.0344,-1.0345,-1.0349,-1.0358,-1.0363,-1.0359,-1.0363,-1.037,-1.0364,-1.0371,-1.0369,-1.0369,-1.0335,-1.0331,-1.0375,-1.0375,-1.0375,-1.0375,-1.0375,-1.0375,-1.0353,-1.0367,-1.0362,-1.0376,-1.0374,-1.0383,-1.0384,-1.0386,-1.0386,-1.0395,-1.04,-1.0397,-1.0395,-1.0399,-1.0404,-1.0402,-1.0404,-1.0412,-1.0408,-1.0376,-1.0372,-1.0367,-1.0363,-1.0413,-1.0413,-1.0441,-1.0442,-1.0442]},{"header":{"parameterUnit":"m.s-1","parameterCategory":1,"la1":30.2991,"la2":30.254,"lo1":-89.0895,"lo2":-89.0444,"dy":0.0017,"dx":0.0017,"nx":28,"ny":28,"refTime":"2025-02-07T03:00:00:Z","depth":0,"parameterNumber":3,"parameterNumberName":"V-component_of_WINDS"},"data":[0,0,0,0,0,0,0,0,0,0,0,0,0,0,0,0,0,0,0,0,0,0,0,0,0,0,0,0,0,0,0,0,0,0,0,0,0,0,0,0,0,0,0,0,0,0,0,0,0,0,0,0,0,0,0,0,0,0,3.2923,3.2923,0,3.2936,3.2936,3.2936,3.2938,3.2938,3.2938,3.2937,3.2948,3.2949,3.2949,0,0,0,0,0,0,0,0,0,0,0,0,0,3.29,3.29,3.2923,3.2923,3.2923,3.2936,3.2936,3.2936,3.2938,3.2938,3.2938,3.2937,3.2948,3.2949,3.2949,0,0,0,0,0,0,0,0,0,0,0,0,0,3.2911,3.29,3.2923,3.2926,3.2926,3.2936,3.2936,3.2936,3.2938,3.2938,3.2937,3.2937,3.2948,3.2949,3.2949,3.2956,0,0,3.2951,3.2951,0,0,0,0,0,0,0,0,3.291,3.2912,3.2925,3.2925,3.2926,3.2935,3.2932,3.2943,3.2938,3.2933,3.2937,3.2937,3.2944,3.2945,3.2948,3.2957,3.2957,3.2951,3.2952,3.2952,3.2952,0,0,0,0,0,0,0,3.2909,3.2911,3.2928,3.2925,3.2926,3.2926,3.2928,3.2934,3.2939,3.2934,3.2934,3.2935,3.2944,3.2947,3.2948,3.2957,3.2951,3.2952,3.2952,3.2952,3.2977,3.2977,0,0,0,0,0,0,3.2908,3.2911,3.2927,3.2928,3.2918,3.2927,3.2928,3.2932,3.2939,3.294,3.2936,3.2935,3.2946,3.2947,3.2948,3.2959,3.2952,3.2952,3.2953,3.2977,3.2977,3.2977,0,0,0,0,0,0,3.2908,3.291,3.2927,3.2919,3.2922,3.2927,3.2932,3.2933,3.2935,3.2941,3.2942,3.2938,3.2946,3.2947,3.2955,3.296,3.2953,3.2953,3.2976,3.2977,3.2977,3.298,0,0,0,0,0,0,3.2907,3.291,3.2912,3.292,3.2922,3.2934,3.2932,3.2933,3.2937,3.2937,3.2943,3.2944,3.2946,3.2954,3.2956,3.296,3.2954,3.2976,3.2976,3.2977,3.298,3.2981,3.2982,0,0,0,0,0,3.2906,3.2911,3.2912,3.2914,3.2925,3.2934,3.2935,3.2938,3.2937,3.294,3.2944,3.2943,3.2959,3.2955,3.2957,3.2962,3.2976,3.2976,3.2977,3.2979,3.2981,3.2982,0,0,0,0,0,0,3.2902,3.2912,3.2913,3.2921,3.2927,3.2934,3.2938,3.2939,3.2945,3.2944,3.2948,3.2949,3.2957,3.296,3.2956,3.2971,3.2967,3.2968,3.2968,3.297,3.2971,3.297,3.2954,0,0,0,0,0,3.2903,3.2909,3.2917,3.2923,3.2926,3.2932,3.2935,3.2938,3.2943,3.2946,3.295,3.2955,3.2962,3.2966,3.2971,3.298,3.2983,3.2985,3.2985,3.2986,3.2987,3.2995,3.2996,3.2979,3.2979,3.2979,0,0,3.2902,3.2909,3.2912,3.2922,3.2927,3.2934,3.2933,3.294,3.2946,3.2946,3.2955,3.2959,3.2965,3.2974,3.2978,3.2977,3.2993,3.2987,3.2988,3.2988,3.2996,3.2997,3.2999,3.298,3.298,3.298,0,0,3.2907,3.2911,3.2918,3.2924,3.2932,3.2936,3.2938,3.2946,3.2949,3.2958,3.296,3.2966,3.2976,3.2982,3.2986,3.2996,3.2997,3.2998,3.3003,3.301,3.3011,3.3013,3.3018,3.302,3.2999,3.2999,3.2999,0,3.2905,3.2916,3.2921,3.2929,3.2934,3.2937,3.2945,3.295,3.2959,3.2963,3.2961,3.2977,3.2981,3.2993,3.2996,3.2998,3.3001,3.2997,3.3011,3.3012,3.3013,3.3019,3.3021,3.2999,3.2999,3.2999,3.2999,0,3.2916,3.2924,3.2928,3.2939,3.2945,3.2952,3.2959,3.2964,3.2967,3.2972,3.2982,3.2988,3.2997,3.2999,3.3001,3.3012,3.3012,3.301,3.3007,3.3015,3.3021,3.3022,3.2999,3.2999,3.2999,3.2999,0,0,3.2915,3.2932,3.2934,3.294,3.2951,3.2957,3.2966,3.2976,3.2982,3.2988,3.2997,3.3007,3.3007,3.3012,3.3014,3.3021,3.3031,3.3019,3.3019,3.3023,3.3047,3.3049,3.3051,3.3032,3.3032,3.3032,3.3047,0,3.2922,3.2939,3.2945,3.2958,3.2967,3.2972,3.298,3.2988,3.2993,3.3001,3.3006,3.3015,3.3013,3.3016,3.3023,3.3029,3.3036,3.3027,3.304,3.3041,3.304,3.3053,3.3055,3.3068,3.3049,3.3049,3.305,0,3.2931,3.2941,3.2956,3.297,3.2973,3.298,3.2992,3.2999,3.3009,3.3013,3.302,3.3023,3.3033,3.3029,3.3044,3.3038,3.3044,3.3048,3.3049,3.3051,3.3046,3.3057,3.3072,3.3075,3.3052,3.3052,3.3052,0,3.2933,3.2949,3.2961,3.2966,3.2981,3.2987,3.2993,3.3003,3.301,3.3019,3.3024,3.3034,3.304,3.3048,3.3054,3.3051,3.307,3.3066,3.3074,3.3074,3.3078,3.3078,3.3096,3.3079,3.3079,3.3079,3.3079,0,3.294,3.2949,3.2963,3.297,3.2982,3.2989,3.3,3.3007,3.3016,3.3026,3.3029,3.3038,3.3045,3.3055,3.306,3.3073,3.3075,3.3079,3.308,3.3079,3.3079,3.3083,3.3083,3.308,3.308,3.308,3.308,0,3.2942,3.2951,3.2966,3.298,3.2984,3.2992,3.3004,3.3012,3.3019,3.3031,3.3034,3.3044,3.3056,3.3063,3.3078,3.3081,3.3097,3.3096,3.3094,3.3095,3.3103,3.3103,3.3125,3.313,3.3109,3.311,3.311,0,3.2947,3.2955,3.2971,3.2979,3.2986,3.2997,3.3005,3.3013,3.3021,3.3035,3.3042,3.3055,3.3066,3.3085,3.3093,3.3105,3.3107,3.3114,3.3108,3.3108,3.3109,3.3109,3.3111,3.3115,3.3115,3.3115,3.3115,0,3.2954,3.296,3.2971,3.2986,3.2995,3.3006,3.3017,3.3023,3.3034,3.3042,3.3056,3.3065,3.3082,3.3095,3.3108,3.3115,3.3118,3.3117,3.312,3.312,3.3119,3.3121,3.3098,3.3117,3.3117,3.3116,3.3116,3.3116,3.2959,3.2968,3.2982,3.2996,3.3006,3.3017,3.3026,3.3035,3.3047,3.3062,3.3067,3.3081,3.3094,3.3112,3.312,3.3132,3.313,3.3134,3.3135,3.3136,3.3138,3.3116,3.3134,3.3134,3.3134,3.3134,3.3134,0,3.2969,3.2979,3.2992,3.3009,3.302,3.3023,3.3036,3.3046,3.3059,3.3071,3.3083,3.31,3.3114,3.3124,3.3139,3.3147,3.3148,3.315,3.315,3.3152,3.3137,3.3134,3.3149,3.3149,3.3149,3.3149,3.3149,3.3149,3.2975,3.2991,3.2998,3.302,3.3029,3.3045,3.3053,3.3064,3.3074,3.3094,3.3106,3.3114,3.3126,3.3142,3.3155,3.3158,3.3164,3.3166,3.3169,3.3154,3.3153,3.3151,3.3149,3.3166,3.3166,3.3184,3.3184,3.3184]}]]